Location: Chervonnoye
(48.6000°N, 34.4000°E)
Time: 07:52:15
(UTC+00:00)

KAITUO 1B - Pass Details

Date: 07 December 2021
Orbit: 486 x 507 km, 97.4° (Epoch: 18 January)

Event Time Altitude Azimuth Distance (km) Brightness Sun altitude
Rises 14:26:59 0° 137° (SE) 2,605 ? -6.5°
Reaches altitude 10° 14:29:16 10° 125° (SE) 1,727 ? -6.8°
Maximum altitude 14:32:25 27° 67° (ENE) 1,019 ? -7.3°
Drops below altitude 10° 14:35:36 10° 9° (N) 1,744 ? -7.8°
Sets 14:37:55 0° 357° (N) 2,636 ? -8.1°
